Regional Weather Roundup
Issued by NWS Charleston, WV

Home | Current Version | Previous Version | Text Only | Print | Product List | Glossary Off
Versions: 1 2 3 4 5 6 7 8 9 10 11 12 13 14 15 16 17 18 19 20 21 22 23 24 25 26 27 28 29 30 31 32 33 34 35 36 37 38 39 40 41 42 43 44 45 46 47 48 49 50

000
ASUS41 KRLX 250510
RWRRLX
West Virginia Regional Weather Roundup
National Weather Service Charleston WV
1200 AM EST SUN JAN 25 2015

Note: "fair" indicates few or no clouds below 12,000 feet with no
significant weather and/or obstructions to visibility.

WVZ003-250600-
Northern Panhandle of West Virginia

CITY           SKY/WX    TMP DP  RH WIND       PRES   REMARKS
WHEELING       CLOUDY    32  29  88 W9        29.72R FOG
$$

WVZ009-250600-
Northwest West Virginia

CITY           SKY/WX    TMP DP  RH WIND       PRES   REMARKS
PARKERSBURG    CLOUDY    33  30  88 SW5       29.82F FOG
$$

WVZ006-250600-
Western West Virginia

CITY           SKY/WX    TMP DP  RH WIND       PRES   REMARKS
HUNTINGTON     PTCLDY    32  30  92 S7        29.83F
$$

WVZ015-250600-
West Central West Virginia

CITY           SKY/WX    TMP DP  RH WIND       PRES   REMARKS
CHARLESTON     MOCLDY    34  30  85 SW7       29.84S
$$

WVZ022-031-250600-
North Central West Virginia

CITY           SKY/WX    TMP DP  RH WIND       PRES   REMARKS
CLARKSBURG     CLOUDY    32  30  92 W9G20     29.78R
MORGANTOWN     CLOUDY    32  27  81 VRB7      29.76R
$$

WVZ025-035-042-045-250600-
Southern West Virginia

CITY           SKY/WX    TMP DP  RH WIND       PRES   REMARKS
BECKLEY        CLOUDY    30  26  85 W10       29.79R
LOGAN          MOCLDY    32  30  93 SW5       29.83F
BLUEFIELD      CLOUDY    31  26  82 W10G24    29.79R
LEWISBURG      CLOUDY    33  28  80 W7G16     29.76S
$$

WVZ047-250600-
Northern Mountains of West Virginia

CITY           SKY/WX    TMP DP  RH WIND       PRES   REMARKS
ELKINS         CLOUDY    30  29  96 VRB5      29.76R
$$

WVZ052-250600-
Eastern Panhandle of West Virginia

CITY           SKY/WX    TMP DP  RH WIND       PRES   REMARKS
MARTINSBURG    CLOUDY    38  26  62 W18       29.67R
PETERSBURG     CLOUDY    37  25  60 E3        29.72R
$$


USA.gov is the U.S. government's official web portal to all federal, state and local government web resources and services.